Owensboro, KY

1:05 AM CST on November 18, 2019 (GMT -0600)
Owensboro-Daviess County

Weather History for KOWB - October, 2019

Change the Weather History Date:

Tuesday, October 22, 2019

  Actual Average Record
Temperature  
Mean Temperature 54 °F -  
Max Temperature 66 °F 69 °F 91 °F (1947)
Min Temperature 44 °F 43 °F 22 °F (1952)
Degree Days  
Heating Degree Days 10    
Growing Degree Days 4 (Base 50)    
Moisture  
Dew Point 42 °F    
Average Humidity 64    
Maximum Humidity 100    
Minimum Humidity 37    
Precipitation  
Precipitation 0.00 in - - ()
Sea Level Pressure  
Sea Level Pressure 29.92 in    
Wind  
Wind Speed 10 mph (WSW)    
Max Wind Speed 23 mph    
Max Gust Speed 31 mph    
Visibility 10 miles    
Events      
Averages and records for this station are not official NWS values.
T = Trace of Precipitation, MM = Missing Value Source: NWS Daily Summary

Daily Weather History Graph

Daily Weather History Graph

Search for Another Location

Airport or City:

Astronomy

Oct. 22, 2019 Rise Set
Actual Time 7:03 AM CDT 6:02 PM CDT
Civil Twilight 6:36 AM CDT 6:28 PM CDT
Nautical Twilight 6:06 AM CDT 6:59 PM CDT
Astronomical Twilight 5:35 AM CDT 7:29 PM CDT
Moon 12:22 AM CDT (10/22) 3:02 PM CDT (10/22)
Length of Visible Light 11h 51m
Length of Day
10h 58m
Last Quarter, 37% of the Moon is Illuminated
Oct 22
Last Quarter
Oct 27
New
Nov 4
First Quarter
Nov 12
Full
Nov 19
Last Quarter

Hourly Weather History & Observations

Time (CDT) Temp. Windchill Dew Point Humidity Pressure Visibility Wind Dir Wind Speed Gust Speed Precip Events Conditions
12:56 AM 59.0 °F - 55.9 °F 90% 29.82 in 10.0 mi West 6.9 mph - N/A   Clear
1:56 AM 54.0 °F - 54.0 °F 100% 29.83 in 10.0 mi South 6.9 mph - N/A   Clear
2:56 AM 52.0 °F - 51.1 °F 97% 29.82 in 10.0 mi SSW 6.9 mph - N/A   Clear
3:56 AM 54.0 °F - 51.1 °F 90% 29.82 in 10.0 mi SW 10.4 mph - N/A   Clear
5:56 AM 48.9 °F - 45.0 °F 86% 29.85 in 10.0 mi SW 5.8 mph - N/A   Clear
6:56 AM 46.9 °F - 44.1 °F 90% 29.87 in 10.0 mi WSW 6.9 mph - N/A   Clear
7:56 AM 51.1 °F - 44.1 °F 77% 29.89 in 10.0 mi WSW 10.4 mph - N/A   Clear
8:56 AM 54.0 °F - 43.0 °F 66% 29.91 in 10.0 mi West 11.5 mph - N/A   Clear
9:56 AM 55.9 °F - 42.1 °F 60% 29.92 in 10.0 mi West 17.3 mph 25.3 mph N/A   Clear
10:56 AM 57.9 °F - 42.1 °F 56% 29.94 in 10.0 mi West 18.4 mph 26.5 mph N/A   Partly Cloudy
11:56 AM 61.0 °F - 42.1 °F 50% 29.92 in 10.0 mi WSW 15.0 mph 23.0 mph N/A   Clear
12:56 PM 63.0 °F - 39.9 °F 43% 29.91 in 10.0 mi West 20.7 mph - N/A   Clear
1:56 PM 64.9 °F - 39.0 °F 39% 29.88 in 10.0 mi WSW 23.0 mph 31.1 mph N/A   Partly Cloudy
2:56 PM 64.9 °F - 37.9 °F 37% 29.90 in 10.0 mi West 20.7 mph 25.3 mph N/A   Clear
3:56 PM 64.9 °F - 39.0 °F 39% 29.91 in 10.0 mi WSW 18.4 mph 23.0 mph N/A   Scattered Clouds
4:56 PM 62.1 °F - 37.0 °F 39% 29.91 in 10.0 mi WSW 16.1 mph - N/A   Clear
5:56 PM 57.9 °F - 37.9 °F 47% 29.95 in 10.0 mi WSW 13.8 mph - N/A   Clear
6:56 PM 52.0 °F - 37.9 °F 59% 29.97 in 10.0 mi SW 9.2 mph - N/A   Clear
7:56 PM 50.0 °F - 37.0 °F 61% 29.98 in 10.0 mi SW 6.9 mph - N/A   Clear
8:56 PM 48.9 °F - 36.0 °F 61% 30.00 in 10.0 mi SW 4.6 mph - N/A   Clear
9:56 PM 45.0 °F 43.5 °F 34.0 °F 65% 30.03 in 10.0 mi SW 3.5 mph - N/A   Clear
10:56 PM 45.0 °F 42.6 °F 34.0 °F 65% 30.04 in 10.0 mi WSW 4.6 mph - N/A   Clear
11:56 PM 44.1 °F 41.5 °F 33.1 °F 65% 30.04 in 10.0 mi WSW 4.6 mph - N/A   Clear